F9741 Weather Reports


time (UTC)temp
C
wind
direction
speed
KPH
gust
KPH
rain 1hr
cm
rain 24hr
cm
rain mn
cm
humidity
%
barometer
mb
20260504221259 23 21 8.0 27.4 0.00 0.00 0.00 32 1005.2
20260504220756 23 78 9.7 27.4 0.00 0.00 0.00 32 1005.2
20260504220259 23 33 8.0 27.4 0.00 0.00 0.00 32 1005.1
20260504215755 24 63 6.4 20.9 0.00 0.00 0.00 33 1005.1
20260504215255 24 57 6.4 20.9 0.00 0.00 0.00 32 1005.0
20260504215020 24 325 6.4 20.9 0.00 0.00 0.00 33 1004.9
20260504214251 25 46 4.8 19.3 0.00 0.00 0.00 31 1005.0
20260504213748 25 22 6.4 19.3 0.00 0.00 0.00 31 1004.9
20260504213248 25 123 8.0 19.3 0.00 0.00 0.00 31 1004.8
20260504212749 25 13 6.4 17.7 0.00 0.00 0.00 31 1004.8
20260504212249 25 136 6.4 17.7 0.00 0.00 0.00 33 1004.7
20260504211750 25 116 6.4 17.7 0.00 0.00 0.00 31 1004.8
20260504211249 25 119 4.8 16.1 0.00 0.00 0.00 32 1004.6
20260504210749 25 120 4.8 16.1 0.00 0.00 0.00 32 1004.6
20260504210511 25 103 4.8 14.5 0.00 0.00 0.00 32 1004.6
20260504205749 25 123 4.8 14.5 0.00 0.00 0.00 32 1004.6
20260504205252 25 66 4.8 17.7 0.00 0.00 0.00 33 1004.6
20260504204749 25 70 4.8 17.7 0.00 0.00 0.00 36 1004.6
20260504204245 25 37 6.4 22.5 0.00 0.00 0.00 36 1004.5
20260504203746 25 69 4.8 22.5 0.00 0.00 0.00 34 1004.6
20260504203245 25 97 6.4 22.5 0.00 0.00 0.00 37 1004.5
20260504202746 25 80 6.4 22.5 0.00 0.00 0.00 36 1004.6
20260504202246 26 40 4.8 12.9 0.00 0.00 0.00 37 1004.5
20260504201745 26 49 4.8 25.7 0.00 0.00 0.00 36 1004.4
20260504201245 25 71 4.8 25.7 0.00 0.00 0.00 40 1004.4
20260504200745 25 115 6.4 25.7 0.00 0.00 0.00 39 1004.4
20260504200244 25 50 6.4 25.7 0.00 0.00 0.00 36 1004.3
20260504195743 26 315 6.4 20.9 0.00 0.00 0.00 37 1004.5
20260504195245 26 41 6.4 17.7 0.00 0.00 0.00 38 1004.4
20260504194959 26 64 6.4 17.7 0.00 0.00 0.00 36 1004.5
20260504194240 26 306 6.4 17.7 0.00 0.00 0.00 38 1004.3
20260504193739 26 119 6.4 17.7 0.00 0.00 0.00 38 1004.3
20260504193237 26 342 4.8 17.7 0.00 0.00 0.00 38 1004.2
20260504192740 26 42 4.8 17.7 0.00 0.00 0.00 38 1004.2
20260504192238 26 60 6.4 20.9 0.00 0.00 0.00 39 1004.2
20260504191738 26 86 6.4 20.9 0.00 0.00 0.00 40 1004.2
20260504191458 26 299 4.8 17.7 0.00 0.00 0.00 40 1004.2
20260504190740 26 53 4.8 17.7 0.00 0.00 0.00 38 1004.1
20260504190234 26 288 4.8 16.1 0.00 0.00 0.00 39 1004.1
20260504185736 26 164 4.8 22.5 0.00 0.00 0.00 39 1004.0
20260504185234 27 96 4.8 22.5 0.00 0.00 0.00 36 1003.9
20260504184734 27 55 6.4 22.5 0.00 0.00 0.00 39 1003.8
20260504184234 27 130 6.4 22.5 0.00 0.00 0.00 34 1003.9
20260504184001 27 282 4.8 16.1 0.00 0.00 0.00 34 1003.8
20260504183456 27 163 4.8 19.3 0.00 0.00 0.00 35 1003.8
20260504183006 27 271 4.8 19.3 0.00 0.00 0.00 35 1003.8
20260504182238 27 252 4.8 16.1 0.00 0.00 0.00 35 1003.8
20260504181735 27 279 4.8 16.1 0.00 0.00 0.00 36 1003.8
20260504181234 27 148 4.8 16.1 0.00 0.00 0.00 35 1003.7
20260504180733 27 50 4.8 14.5 0.00 0.00 0.00 35 1003.7
20260504180232 27 267 4.8 16.1 0.00 0.00 0.00 37 1003.7
20260504175953 27 147 4.8 16.1 0.00 0.00 0.00 34 1003.7
20260504175504 27 259 4.8 16.1 0.00 0.00 0.00 37 1003.7
20260504174731 27 211 4.8 16.1 0.00 0.00 0.00 37 1003.8
20260504174230 27 333 4.8 14.5 0.00 0.00 0.00 35 1003.9
20260504173730 27 265 4.8 11.3 0.00 0.00 0.00 36 1003.8
20260504173459 27 296 3.2 14.5 0.00 0.00 0.00 39 1004.0
20260504172729 26 265 3.2 14.5 0.00 0.00 0.00 37 1003.9
20260504172227 26 131 3.2 16.1 0.00 0.00 0.00 40 1004.0
20260504171727 26 235 4.8 16.1 0.00 0.00 0.00 38 1004.0
20260504171444 26 160 4.8 19.3 0.00 0.00 0.00 38 1004.0
20260504170728 26 284 4.8 19.3 0.00 0.00 0.00 38 1004.1
20260504170224 26 324 4.8 19.3 0.00 0.00 0.00 38 1004.1
20260504160208 23 239 6.4 19.3 0.00 0.00 0.00 47 1004.2
20260504151145 20 228 4.8 12.9 0.00 0.00 0.00 53 1004.1
20260504150637 20 239 3.2 12.9 0.00 0.00 0.00 52 1004.1
20260504150132 20 232 3.2 12.9 0.00 0.00 0.00 51 1004.1
20260504141032 18 67 1.6 6.4 0.00 0.00 0.00 55 1004.5
20260504140527 18 202 1.6 6.4 0.00 0.00 0.00 55 1004.5
20260504130414 14 314 0.0 8.0 0.00 0.00 0.00 69 1004.7
20260504110656 8 246 0.0 0.0 0.00 0.00 0.00 81 1004.5
20260504110149 8 246 0.0 0.0 0.00 0.00 0.00 81 1004.6
20260504100342 10 245 0.0 0.0 0.00 0.00 0.00 74 1004.7
20260504090108 11 244 0.0 0.0 0.00 0.00 0.00 70 1004.9
20260504081057 11 244 0.0 0.0 0.00 0.00 0.00 70 1005.7
20260504080827 11 244 0.0 0.0 0.00 0.00 0.00 70 1005.8
20260504050540 12 241 0.0 0.0 0.00 0.00 0.00 66 1008.4
20260504050304 13 241 0.0 0.0 0.00 0.00 0.00 65 1008.5
20260504045537 13 241 0.0 0.0 0.00 0.00 0.00 64 1008.6
20260504045037 13 241 0.0 0.0 0.00 0.00 0.00 63 1008.6
20260504044532 13 241 0.0 0.0 0.00 0.00 0.00 62 1008.6
20260504044033 13 241 0.0 0.0 0.00 0.00 0.00 61 1008.6
20260504043749 14 241 0.0 0.0 0.00 0.00 0.00 61 1008.6
20260504043032 14 241 0.0 0.0 0.00 0.00 0.00 60 1008.9
20260504042534 14 241 0.0 0.0 0.00 0.00 0.00 60 1008.8
20260504042030 14 241 0.0 0.0 0.00 0.00 0.00 60 1008.8
20260504041532 14 241 0.0 0.0 0.00 0.00 0.00 59 1008.9
20260504041303 15 241 0.0 0.0 0.00 0.00 0.00 59 1008.9
20260504040534 15 241 0.0 0.0 0.00 0.00 0.00 58 1009.0
20260504040026 15 241 0.0 0.0 0.00 0.00 0.00 57 1009.1
20260504035527 15 241 0.0 0.0 0.00 0.00 0.00 57 1009.1
20260504035028 16 241 0.0 0.0 0.00 0.00 0.00 55 1009.1
20260504034529 16 241 0.0 0.0 0.00 0.00 0.00 54 1009.2
20260504034028 16 241 0.0 0.0 0.00 0.00 0.00 53 1009.3
20260504033527 16 240 0.0 0.0 0.00 0.00 0.00 53 1009.3
20260504033027 16 240 0.0 0.0 0.00 0.00 0.00 52 1009.4
20260504032526 16 240 0.0 0.0 0.00 0.00 0.00 52 1009.3
20260504032030 16 240 0.0 0.0 0.00 0.00 0.00 51 1009.4
20260504031526 17 240 0.0 0.0 0.00 0.00 0.00 51 1009.3
20260504031254 17 240 0.0 0.0 0.00 0.00 0.00 50 1010.1
20260504030751 17 239 0.0 0.0 0.00 0.00 0.00 51 1009.7
20260504030026 17 239 0.0 0.0 0.00 0.00 0.00 50 1009.6
20260504025522 17 239 0.0 0.0 0.00 0.00 0.00 50 1009.7
20260504025021 17 239 0.0 0.0 0.00 0.00 0.00 50 1009.6
20260504024745 17 239 0.0 0.0 0.00 0.00 0.00 50 1009.6
20260504024018 17 239 0.0 0.0 0.00 0.00 0.00 50 1009.6
20260504023518 17 239 0.0 0.0 0.00 0.00 0.00 49 1009.4
20260504023019 17 239 0.0 0.0 0.00 0.00 0.00 49 1009.6
20260504022517 17 239 0.0 0.0 0.00 0.00 0.00 49 1009.4
20260504022016 17 239 0.0 1.6 0.00 0.00 0.00 49 1009.6
20260504021514 17 239 0.0 1.6 0.00 0.00 0.00 48 1009.4
20260504021009 17 239 0.0 1.6 0.00 0.00 0.00 48 1009.6
20260504020735 18 239 0.0 1.6 0.00 0.00 0.00 48 1009.7
20260504020234 18 239 0.0 1.6 0.00 0.00 0.00 47 1009.8
20260504015457 18 239 0.0 0.0 0.00 0.00 0.00 46 1009.8
20260504015447 18 239 0.0 0.0 0.00 0.00 0.00 45 1009.8
20260504014444 19 239 0.0 0.0 0.00 0.00 0.00 44 1009.8
20260504013938 19 239 0.0 1.6 0.00 0.00 0.00 43 1009.8
20260504013433 20 239 0.0 1.6 0.00 0.00 0.00 43 1009.8
20260504012928 20 239 0.0 1.6 0.00 0.00 0.00 42 1009.7
20260504012420 20 239 0.0 3.2 0.00 0.00 0.00 40 1009.7
20260504011914 20 239 0.0 3.2 0.00 0.00 0.00 40 1009.8
20260504011408 21 239 0.0 8.0 0.00 0.00 0.00 40 1009.7
20260504010903 21 239 1.6 8.0 0.00 0.00 0.00 40 1009.7
20260504010355 21 234 3.2 8.0 0.00 0.00 0.00 42 1009.8
20260504005850 21 234 3.2 8.0 0.00 0.00 0.00 39 1009.9
20260504005345 21 232 1.6 6.4 0.00 0.00 0.00 39 1009.9
20260504004838 22 226 0.0 3.2 0.00 0.00 0.00 36 1010.0
20260504004333 22 226 0.0 3.2 0.00 0.00 0.00 36 1010.1
20260504003826 22 226 0.0 3.2 0.00 0.00 0.00 35 1010.1
20260504003322 22 226 0.0 6.4 0.00 0.00 0.00 35 1010.1
20260504002813 22 226 0.0 6.4 0.00 0.00 0.00 35 1010.1
20260504002309 22 226 1.6 6.4 0.00 0.00 0.00 35 1010.2
20260504001801 23 225 1.6 6.4 0.00 0.00 0.00 35 1010.3
20260504001255 23 260 1.6 6.4 0.00 0.00 0.00 35 1010.3
20260504001009 23 261 1.6 8.0 0.00 0.00 0.00 34 1010.3
20260504000241 23 248 1.6 8.0 0.00 0.00 0.00 36 1010.4
20260503235736 23 286 1.6 8.0 0.00 0.00 0.00 34 1010.5
20260503235231 23 297 1.6 8.0 0.00 0.00 0.00 35 1010.4
20260503234724 24 295 1.6 8.0 0.00 0.00 0.00 34 1010.5
20260503234446 23 267 1.6 4.8 0.00 0.00 0.00 34 1010.4
20260503233711 23 257 1.6 8.0 0.00 0.00 0.00 36 1010.4
20260503233430 23 277 1.6 8.0 0.00 0.00 0.00 34 1010.6
20260503232700 23 230 1.6 8.0 0.00 0.00 0.00 38 1010.6
20260503232427 23 239 3.2 9.7 0.00 0.00 0.00 34 1010.6
20260503232144 23 236 1.6 9.7 0.00 0.00 0.00 36 1010.6
20260503231141 23 238 3.2 16.1 0.00 0.00 0.00 36 1010.7
20260503230635 23 343 3.2 16.1 0.00 0.00 0.00 36 1010.6
20260503230129 23 239 1.6 8.0 0.00 0.00 0.00 35 1010.6
20260503225625 23 239 3.2 11.3 0.00 0.00 0.00 35 1010.7
20260503225120 23 218 3.2 11.3 0.00 0.00 0.00 35 1010.7
20260503224842 23 167 4.8 11.3 0.00 0.00 0.00 35 1010.7
20260503224107 23 234 4.8 14.5 0.00 0.00 0.00 35 1010.7
20260503223559 23 236 4.8 14.5 0.00 0.00 0.00 35 1010.7
20260503223054 23 240 6.4 14.5 0.00 0.00 0.00 36 1010.7
20260503222549 23 217 6.4 14.5 0.00 0.00 0.00 37 1010.8
20260503222043 23 242 4.8 12.9 0.00 0.00 0.00 35 1010.8
20260503221757 23 225 4.8 16.1 0.00 0.00 0.00 35 1010.8